Weather in Pomichna

Ukraine / Kirovohrad Region     48°14′35″N   31°24′21″E
temp.,
°C
wind,
m/s
gust,
m/s
humid.,
%
clouds,
%
prec.,
mm/h
press.,
hPa
HPBL,
m
27 september, mon
mon2700:00+11n39725 0.0 1021184
03:00+9n35795 0.0 102191
06:00+8n36825 0.0 1022117
09:00+11n58640 0.0 1022484
12:00+14n55490 0.0 10221270
15:00+16n55425 0.0 10211595
18:00+14nne574920 0.0 1021430
21:00+10ne39694 0.0 1022216
28 september, tue
tue2800:00+9nne227062 0.0 102229
03:00+10nne377970 0.1 1022326
06:00+7nne36945 0.0 1023127
09:00+10ne56785 0.0 1024426
12:00+14ne455560 0.1 10241429
15:00+15ne444799 0.3 10231522
18:00+13ne475292 0.0 1025357
21:00+13nne3550100 0.0 1026130
29 september, wed
wed2900:00+11ne4873100 0.1 1027315
03:00+10ne4878100 0.1 1028329
06:00+7ene498616 0.0 1028281
09:00+10ene687099 0.0 1029540
12:00+13ene56518 0.0 10301248
15:00+14ne544499 0.0 10291764
18:00+12ne575537 0.0 1029633
21:00+9ene486267 0.0 1031226
30 september, thu
thu3000:00+9ene386754 0.0 1032201
03:00+7ene35698 0.0 103194
06:00+6ene47734 0.0 1032119
09:00+9e57500 0.0 1033320
12:00+13e45350 0.0 10321194
15:00+15e44295 0.0 10311462
18:00+13e34360 0.0 103189
21:00+9e46430 0.0 103295
1 october, fri
fri100:00+8e35460 0.0 103379
03:00+7e35480 0.0 103379
06:00+6e35520 0.0 103480
09:00+9ese47434 0.0 1034279
12:00+14ese45310 0.0 10341213
15:00+15ese45271 0.0 10331478
18:00+13e353511 0.0 103280
21:00+10ese3640100 0.0 1033105